STARLINK-36557, 67500

Orbit data source: Space-Track

STARLINK-36557, 67500 is a payload satellite owned by SpaceX/Seattle (US) in LEO that was launched on Sun, 18 Jan 2026 UTC via an FALCON 9 launch vehicle from the Air Force Eastern Test Range (AFETR). Payload-class satellites include a variety of spacecraft equipped with specific instruments for various scientific and technological missions. These include communications satellites like Starlink; space stations such as the ISS; scientific satellites like the Hubble; Earth observation satellites from companies like Planet Labs, Umbra, and HawkEye 360; GPS; miniature CubeSats for education and research; and military/defense satellites.

Loading next visibility...
Identifier
67500, 2026-012H
Orbit
LEO
Country
Flag of USUS
Related business
Manufacturer
SpaceX/Seattle
Mission
Operational Commercial Communications
Bus & Motor
STARLINK V2MO, Unknown motor
Mass
575 kg wet, ~530 kg dry
Launch date (UTC)
2026-01-18 (5 months ago)
Launch vehicle
FALCON 9
Launch site
Air Force Eastern Test Range (AFETR)
Object type
Payload
Rocket body
Debris
Shape & HBR
Box + 2 Pan, 17.7 m
Radar Cross Section
36.964 m², Large (>1 m²)

Expand to show TLE details & history
Last TLE update: 1 day ago

TLE from 1 day ago
0 STARLINK-36557
1 67500U 26012H   26170.51044839  .00015265  00000-0  56295-3 0  9998
2 67500  43.0008  99.4091 0001451 263.3195  96.7492 15.27588868 23333
Epoch: 2026-06-19T12:15Z
TLE epoch observation values (Epoch: 2026-06-19T12:15:02.740Z)
Latitude
-0.00001°
Longitude
7.90929°
Altitude
482.915 km
Speed
7.626 km/s
True Right ascension
06h 37m 38s
True Declination
0° 00' 00"
Sunlit
Object was in daylight at epoch
Visualization orbit readout
Latitude
Unknown
Longitude
Unknown
Altitude
Unknown
Speed
Unknown
Apparent Right ascension
Unknown
Apparent Declination
Unknown
Sunlit
N/A
Visualization observer readout
Local Sidereal Time
08:43:10
Azimuth
Unknown
Elevation
Unknown
Doppler factor
Unknown
Orbital elements
Apogee altitude
485.963 km
Perigee altitude
483.972 km
Semi-major axis
6,863.105 km
Eccentricity
0.00015
Inclination
43.0008°
RAAN
99.4091°
Arg. of periapsis
263.3195°
True anomaly
96.76571°
Mean anomaly
96.7492°
Eccentric anomaly
96.75746°
Mean motion
3.81735 °/min
Orbital period
94.31 mins
BSTAR
0.00056295
Loading maneuver chart data...
Computing Atmospheric mass density...
Loading historical data...
Loading historical data...
Loading historical data...
Loading historical data...
Loading historical data...
Loading historical data...
Loading historical data...

Documentation

Showing up to 5 results
|